This is the latest recevied weather packets stored in our database for station/object SQ7IQO. If no packets are shown the sender has not sent any weather packets the latest 10 day(s).
| Time | Temp. | Humidity | Pressure | Rain* | Wind** | Luminosity | Snow |
|---|---|---|---|---|---|---|---|
| 1787750078 | 23.89° C | 52% | 1023.6 hPa | 0 mm | 0 m/s | - | - |
| 1787750018 | 23.89° C | 51% | 1023.5 hPa | 0 mm | 0 m/s | - | - |
| 1787749958 | 24.44° C | 52% | 1023.6 hPa | 0 mm | 0.45 m/s, ° | - | - |
| 1787749898 | 23.89° C | 50% | 1023.6 hPa | 0 mm | 0 m/s | - | - |
| 1787749838 | 24.44° C | 52% | 1023.5 hPa | 0 mm | 0 m/s | - | - |
| 1787749778 | 24.44° C | 50% | 1023.6 hPa | 0 mm | 0 m/s | - | - |
| 1787749718 | 25° C | 49% | 1023.5 hPa | 0 mm | 0 m/s | - | - |
| 1787749658 | 25° C | 49% | 1023.5 hPa | 0 mm | 0 m/s | - | - |
| 1787749598 | 24.44° C | 48% | 1023.5 hPa | 0 mm | 0 m/s | - | - |
| 1787749538 | 25° C | 47% | 1023.6 hPa | 0 mm | 0 m/s | - | - |
| 1787749478 | 25.56° C | 47% | 1023.5 hPa | 0 mm | 0 m/s | - | - |
| 1787749418 | 24.44° C | 48% | 1023.6 hPa | 0 mm | 0 m/s | - | - |
| 1787749358 | 23.89° C | 51% | 1023.6 hPa | 0 mm | 0 m/s | - | - |
| 1787749298 | 23.33° C | 54% | 1023.6 hPa | 0 mm | 0 m/s | - | - |
| 1787749238 | 22.78° C | 55% | 1023.7 hPa | 0 mm | 0 m/s | - | - |
| 1787749178 | 22.22° C | 55% | 1023.7 hPa | 0 mm | 0 m/s | - | - |
| 1787749118 | 22.22° C | 53% | 1023.6 hPa | 0 mm | 0 m/s | - | - |
| 1787749058 | 21.67° C | 59% | 1023.7 hPa | 0 mm | 0.45 m/s, ° | - | - |
| 1787748999 | 21.11° C | 58% | 1023.6 hPa | 0 mm | 0 m/s | - | - |
| 1787748938 | 20.56° C | 65% | 1023.7 hPa | 0 mm | 0 m/s | - | - |
| 1787748878 | 20° C | 63% | 1023.7 hPa | 0 mm | 0 m/s | - | - |
| 1787748818 | 20.56° C | 61% | 1023.7 hPa | 0 mm | 0 m/s | - | - |
| 1787748758 | 20.56° C | 62% | 1023.7 hPa | 0 mm | 0 m/s | - | - |
| 1787748698 | 20.56° C | 60% | 1023.6 hPa | 0 mm | 0 m/s | - | - |
| 1787748638 | 21.11° C | 58% | 1023.7 hPa | 0 mm | 0.45 m/s, ° | - | - |
* Rain latest hour (hover to see other rain measurements)
** Current wind speed in m/s (hover to see current wind gust speed)